Weather History for Santiago, Dominican Republic

Change the Weather History Date:

Monday, January 21, 2013

  Actual Average Record
Temperature  
Mean Temperature 75 °F -  
Max Temperature 85 °F 85 °F 87 °F (1998)
Min Temperature 65 °F 65 °F 60 °F (2005)
Cooling Degree Days 10    
Growing Degree Days 25 (Base 50)    
Moisture  
Dew Point 67 °F    
Average Humidity 78    
Maximum Humidity 100    
Minimum Humidity 36    
Precipitation  
Precipitation 0.00 in 0.06 in - ()
Sea Level Pressure  
Sea Level Pressure 30.00 in    
Wind  
Wind Speed 4 mph ()    
Max Wind Speed 14 mph    
Max Gust Speed -    
Visibility 6.3 miles    
Events      
Averages and records for this station are not official NWS values.
T = Trace of Precipitation, MM = Missing Value Source: Averaged Metar Reports

Daily Weather History Graph

Daily Weather History Graph

Search for Another Location

Airport:

Trip Planner

Search our weather history database for the weather conditions in past years. The results will help you decide how hot, cold, wet, or windy it might be!

Date:

Astronomy

Jan. 21, 2013 Rise Set
Actual Time 7:19 AM AST 6:28 PM AST
Civil Twilight 6:55 AM AST 6:51 PM AST
Nautical Twilight 6:29 AM AST 7:18 PM AST
Astronomical Twilight 6:02 AM AST 7:45 PM AST
Moon 2:08 PM AST (1/21) 2:43 AM AST (1/21)
Length of Visible Light 11h 56m
Length of Day
11h 09m
Waxing Gibbous, 74% of the Moon is Illuminated
Jan 21
Waxing Gibbous
Jan 27
Full
Feb 3
Last Quarter
Feb 10
New
Feb 17
First Quarter

Hourly Weather History & Observations

Time (AST) Temp. Heat Index Dew Point Humidity Pressure Visibility Wind Dir Wind Speed Gust Speed Precip Events Conditions
12:00 AM 68.0 °F - 68.0 °F 100% 30.04 in 6.2 mi Calm Calm - N/A   Scattered Clouds
1:00 AM 68.0 °F - 68.0 °F 100% 30.04 in 6.2 mi East 5.8 mph - N/A   Scattered Clouds
2:00 AM 69 °F - 69 °F 99% 30.02 in 10 mi Calm Calm - -   Scattered Clouds
2:00 AM 69.8 °F - 68.0 °F 94% 30.01 in 6.2 mi Calm Calm - N/A   Partly Cloudy
4:00 AM 68.0 °F - 68.0 °F 100% 29.95 in 6.2 mi SE 4.6 mph - N/A   Partly Cloudy
5:00 AM 69.8 °F - 69.8 °F 100% 29.98 in 6.2 mi Calm Calm - N/A   Partly Cloudy
6:00 AM 68.0 °F - 68.0 °F 100% 29.98 in 6.2 mi ESE 4.6 mph - N/A   Scattered Clouds
7:00 AM 68.0 °F - 68.0 °F 100% 29.98 in 6.2 mi Variable 3.5 mph - N/A   Partly Cloudy
8:00 AM 66 °F - 66 °F 100% 30.00 in 5 mi Calm Calm - -   Haze
8:00 AM 66.2 °F - 66.2 °F 100% 29.98 in 6.2 mi Calm Calm - N/A   Partly Cloudy
9:00 AM 71.6 °F - 69.8 °F 94% 30.01 in 6.2 mi South 4.6 mph - N/A   Scattered Clouds
10:00 AM 75.2 °F - 71.6 °F 89% 30.04 in 6.2 mi ESE 10.4 mph - N/A   Scattered Clouds
11:00 AM 79 °F - 69 °F 63% 30.05 in 6 mi SE 8.9 mph - -   Haze
11:00 AM 78.8 °F - 68.0 °F 69% 30.04 in 6.2 mi SE 9.2 mph - N/A   Partly Cloudy
12:00 PM 80.6 °F 82.7 °F 66.2 °F 61% 30.04 in 6.2 mi ESE 13.8 mph - N/A   Partly Cloudy
1:00 PM 82.4 °F 83.9 °F 64.4 °F 54% 30.01 in 6.2 mi SSE 8.1 mph - N/A   Scattered Clouds
2:00 PM 85 °F - 63 °F 38% 29.99 in 6 mi SE 6.7 mph - -   Haze
2:00 PM 84.2 °F 85.0 °F 62.6 °F 48% 29.98 in 6.2 mi SE 6.9 mph - N/A   Partly Cloudy
3:00 PM 84.2 °F 85.0 °F 62.6 °F 48% 29.95 in 6.2 mi ESE 4.6 mph - N/A   Partly Cloudy
4:00 PM 84.2 °F 85.0 °F 62.6 °F 48% 29.95 in 6.2 mi SSE 5.8 mph - N/A   Partly Cloudy
5:00 PM 85 °F - 62 °F 36% 29.95 in 6 mi ESE 6.7 mph - -   Haze
5:00 PM 84.2 °F 85.0 °F 62.6 °F 48% 29.95 in 6.2 mi ESE 6.9 mph - N/A   Scattered Clouds
6:00 PM - - - N/A% 29.95 in 6.2 mi ESE 11.5 mph - N/A   Partly Cloudy
7:00 PM 77.0 °F - 68.0 °F 74% 29.98 in 6.2 mi ESE 8.1 mph - N/A   Partly Cloudy
8:00 PM 75.2 °F - 68.0 °F 78% 30.01 in 6.2 mi SSE 6.9 mph - N/A   Partly Cloudy
9:00 PM 73.4 °F - 69.8 °F 88% 30.01 in 6.2 mi SSE 6.9 mph - N/A   Partly Cloudy
10:00 PM 71.6 °F - 69.8 °F 94% 30.01 in 6.2 mi SE 4.6 mph - N/A   Partly Cloudy
11:00 PM 71.6 °F - 69.8 °F 94% 30.01 in 6.2 mi SSE 4.6 mph - N/A   Partly Cloudy